Regional Weather Roundup
Issued by NWS

Home | Current Version | Previous Version | Text Only | Print | Product List | Glossary Off
Versions: 1 2 3 4 5 6 7 8 9 10 11 12 13 14 15 16 17 18 19 20 21 22 23 24 25 26 27 28 29 30 31 32 33 34 35 36 37 38 39 40 41 42 43 44 45 46 47 48 49 50

000
ASUS43 KMKX 201500
RWRWI

WISCONSIN REGIONAL WEATHER ROUNDUP
NATIONAL WEATHER SERVICE MILWAUKEE/SULLIVAN WI
1000 AM CDT SUN APR 20 2014

NOTE: "FAIR" INDICATES FEW OR NO CLOUDS BELOW 12,000 FEET WITH NO
SIGNIFICANT WEATHER AND/OR OBSTRUCTIONS TO VISIBILITY.

WIZ001-002-006>008-014>016-023>028-201600-
NORTHWEST WISCONSIN

CITY           SKY/WX    TMP DP  RH WIND       PRES   REMARKS
SUPERIOR ARPT  SUNNY     44  36  74 CALM      30.05F
ASHLAND        SUNNY     51  41  68 CALM      30.06S
HAYWARD        SUNNY     50  46  86 CALM      30.05S FOG
SIREN          SUNNY     47  46  95 CALM      30.05S
RICE LAKE      MOSUNNY   51  50  96 CALM      30.06F FOG
LADYSMITH      MOSUNNY   58  50  73 CALM      30.07S
EAU CLAIRE     NOT AVBL
MENOMONIE      CLOUDY    54  50  89 CALM      30.06S
NEW RICHMOND   SUNNY     57  51  79 E3        30.05S
OSCEOLA        SUNNY     52  52 100 CALM      30.07S
$$

WIZ003>005-009-010-017-018-201600-
NORTH CENTRAL WISCONSIN

CITY           SKY/WX    TMP DP  RH WIND       PRES   REMARKS
WOODRUFF       MOSUNNY   57  45  65 SW7       30.06S
RHINELANDER    CLOUDY    52  42  69 SW8       30.07F
EAGLE RIVER    MOSUNNY   51  41  67 SW6       30.06F
LAND O LAKES   MOSUNNY   55  40  57 SW8       30.06F
PHILLIPS       SUNNY     56  47  70 SW6       30.05F
TOMAHAWK       CLOUDY    50  43  74 CALM      30.07S
MEDFORD        CLOUDY    53  48  83 SW10      30.06F
MERRILL        CLOUDY    53  46  77 CALM      30.08F
$$

WIZ029-030-035-036-043>047-201600-
CENTRAL WISCONSIN

CITY           SKY/WX    TMP DP  RH WIND       PRES   REMARKS
WAUSAU         CLOUDY    51  46  83 S3        30.07S
MOSINEE        CLOUDY    48  48 100 S10       30.10F
MARSHFIELD     CLOUDY    55  50  83 S10       30.07F
STEVENS POINT  LGT RAIN  48  45  89 S7        30.11F
WAUPACA        CLOUDY    55  43  62 S3        30.13S
WAUTOMA        NOT AVBL
WISC RAPIDS    HVY RAIN  50  48  93 S5        30.11F FOG
CAMP DOUGLAS   NOT AVBL
$$

WIZ011>013-019>022-031-037>040-048>050-201600-
NORTHEAST WISCONSIN

CITY           SKY/WX    TMP DP  RH WIND       PRES   REMARKS
ANTIGO         LGT RAIN  46  44  93 S5        30.09F
STURGEON BAY   CLOUDY    39  34  81 SE12      30.15F WCI  32
GREEN BAY      CLOUDY    50  42  74 S6        30.13S
MANITOWOC      NOT AVBL
APPLETON       CLOUDY    50  43  76 VRB3      30.14F
CLINTONVILLE   CLOUDY    52  41  66 S6        30.11F
OSHKOSH        CLOUDY    53  39  59 S7        30.13S
$$

WIZ032>034-041-042-053>061-201600-
SOUTHWEST WISCONSIN

CITY           SKY/WX    TMP DP  RH WIND       PRES   REMARKS
LA CROSSE      RAIN      54  48  80 S7        30.08S
SPARTA         LGT RAIN  53  49  85 CALM      30.10S
VIROQUA        CLOUDY    56  45  66 SW7       30.11S
BOSCOBEL       CLOUDY    66  41  40 SW8       30.11S
PRAIRIE DU CHI CLOUDY    61  41  47 SW5       30.10S
PLATTEVILLE    FAIR      61  40  45 S15       30.12F
$$

WIZ056-057-062-063-064-067-068-201600-
SOUTH CENTRAL WISCONSIN

CITY           SKY/WX    TMP DP  RH WIND       PRES   REMARKS
BARABOO/DELLS  CLOUDY    60  38  44 S6        30.11S
LONE ROCK      NOT AVBL
WATERTOWN      PTSUNNY   58  40  50 S10G16    30.14F
MADISON        PTSUNNY   62  40  44 S12       30.14S
MIDDLETON      CLOUDY    60  38  43 S7        30.13F
MONROE         CLOUDY    60  40  47 S13       30.14S
JANESVILLE     PTSUNNY   59  36  41 S12       30.16F
$$

WIZ051-052-058>065-066-070>072-201600-
SOUTHEAST WISCONSIN

CITY           SKY/WX    TMP DP  RH WIND       PRES   REMARKS
MILWAUKEE      PTSUNNY   60  36  40 S13       30.18F
WAUKESHA       PTSUNNY   57  36  44 S9        30.18F
MILWAUKEE/TIMM MOSUNNY   59  34  38 S8        30.18F
RACINE         MOSUNNY   55  35  47 SE8       30.20F
BURLINGTON     MOSUNNY   60  36  40 SW9       30.17F
KENOSHA        MOSUNNY   63  36  36 S13       30.18F
FOND DU LAC    CLOUDY    56  38  50 S15       30.13F
SHEBOYGAN      CLOUDY    48  38  68 S9        30.16F
WEST BEND      CLOUDY    54  37  54 S8        30.16S
JUNEAU         CLOUDY    55  35  47 S9        30.15F
$$

LSZ147-162-201600-
LAKE SUPERIOR

STATION/POSITION TIME  TEMP    WIND        PRES    WAVE
                       AIR SEA DIR/SP/G            HT/PER
                 (UTC) (F)     (DEG/KT/KT) (MB)    (FT/S)
DEVILS ISLAND    1400   34     230/  8/ 10 1018.6R
PORT WING        1400   38      40/  2/  2 1017.9F
SAXON HARBOR     1440             CALM     1017.6S
$$

LMZ867-665-643>646-201600-
LAKE MICHIGAN

STATION/POSITION TIME  TEMP    WIND        PRES    WAVE
                       AIR SEA DIR/SP/G            HT/PER
                 (UTC) (F)     (DEG/KT/KT) (MB)    (FT/S)
NORTHPORT PIER   1400   39     160/ 11/ 23 1021.0F
SISTER BAY       1409   37     170/ 22/ 30   N/A
KEWAUNEE LAKESHO 1400   38     170/ 16/ 19 1022.4F
SHEBOYGAN LAKESH 1400   40     180/ 17/ 19 1022.3F
PORT WASHINGTON  1440   40     180/  9/ 11 1022.4F
MILWAUKEE LAKESH 1400   41     140/ 11/ 12   N/A
KENOSHA   LAKESH 1400   43     170/ 10/ 11   N/A
$$

TC  - TEMPERATURE IN CELSIUS
VSB - VISIBILITY IN STATUTE MILES
WCI - WIND CHILL INDEX
HX  - HEAT INDEX




USA.gov is the U.S. government's official web portal to all federal, state and local government web resources and services.